Torna al catalogo

FENGYUN 1C DEB

AttivoSSO
NORAD 30931·DEBRIS·🇨🇳 China

Lanciato May 10, 1999 da Taiyuan Satellite Launch Center

Loading…

Prossimi Passaggi (prossime 24 ore)

TLE

AggiornatoSource: Space-Track

Epoca: Sep 14, 2026, 03:44 UTC

1 30931U 99025AZV 26257.15571362  .00000437  00000-0  30448-3 0  9999
2 30931  99.1451 320.7343 0092133   1.3810  25.3781 14.02045712997849

Traccia FENGYUN 1C DEB in tempo reale con AllMySat

Download on the App Store